Погода в Надеждине

Россия / Омская область     55°11′44″N   73°15′18″E
темп.,
°C
ветер,
м/с
пор.,
м/с
влажн.,
%
обл.,
%
осадки,
мм/ч
давл.,
гПа
погр.,
м
19 января, вт
вт1900:00−23зюз45978 0.0 101976
03:00−23зюз47950 0.0 101998
06:00−23зюз49940 0.0 1020137
09:00−24зсз34962 0.0 102146
12:00−22зсз249618 0.0 1023111
15:00−21з23950 0.0 102489
18:00−25сз229613 0.0 102520
21:00−27ссз119821 0.0 102620
20 января, ср
ср2000:00−26всв229211 0.0 102719
03:00−26вюв239147 0.0 102721
06:00−24в359072 0.0 1026105
09:00−23вюв5989100 0.0 1026220
12:00−21вюв61188100 0.0 1024266
15:00−19вюв71387100 0.0 1021344
18:00−18вюв71590100 0.3 1018436
21:00−16юв61295100 2.0 1016554
21 января, чт
чт2100:00−16ююв5109499 2.3 1015296
03:00−17ююз489797 0.1 1015196
06:00−20юз499692 0.1 1015196
09:00−22юз499729 0.0 1015141
12:00−20юз6119450 0.0 1015302
15:00−18юз5109274 0.0 1014392
18:00−21юз499668 0.0 1013180
21:00−24юз479717 0.0 1013112
22 января, пт
пт2200:00−27зюз479817 0.0 1013100
03:00−27зюз369876 0.0 1013102
06:00−28зюз479880 0.0 1013108
09:00−29зюз349972 0.0 101460
12:00−25зюз479769 0.0 1014191
15:00−24юз479693 0.0 1014273
18:00−25юз489897 0.1 1014184
21:00−24зюз3797100 0.0 1014199
23 января, сб
сб2300:00−24юз2499100 0.1 1014104
03:00−23юз1299100 0.3 101431
06:00−23сз1299100 0.5 101424
09:00−23ссз3798100 0.1 1018200
12:00−28ссз579599 0.2 1021257
15:00−29сз479461 0.0 1025299
18:00−32зсз449547 0.0 102963
21:00−34зсз34960 0.0 103255